Location: Newark
(44.0167°N, 1.3500°E)
Time: 23:34:56
(UTC+00:00)

OTV 5 (USA 277) - Visible Passes

Search period start: 15 October 2019 00:00
Search period end: 25 October 2019 00:00
Orbit: 310 x 324 km, 54.5° (Epoch: 08 October)

Date Brightness Start Highest point End Pass type
(mag) Time Alt. Az. Time Alt. Az. Time Alt. Az.
15 Oct ? 05:24:49 10° NNW 05:27:09 24° NNE 05:29:29 10° E visible
16 Oct ? 04:07:19 13° NNE 04:07:19 13° NNE 04:08:24 10° NE visible
16 Oct ? 05:39:09 10° NW 05:41:52 51° NE 05:44:32 10° ESE visible
17 Oct ? 04:21:37 19° NNE 04:21:53 19° NNE 04:23:57 10° ENE visible
18 Oct ? 04:36:01 29° N 04:36:38 33° NNE 04:39:10 10° E visible
19 Oct ? 04:50:31 44° NW 04:51:15 83° NE 04:54:00 10° SE visible
20 Oct ? 05:05:08 29° WSW 05:05:45 33° SW 05:08:16 10° SSE visible
21 Oct ? 05:19:54 13° SW 05:20:05 13° SW 05:21:31 10° SSW visible
